Location: ??????
(55.7522°N, 37.6156°E)
Time: 17:49:47
(UTC+00:00)

Cosmos 158 Rocket - Pass Details

Date: 14 June 2025
Orbit: 695 x 786 km, 74.0° (Epoch: 13 July)

Event Time Altitude Azimuth Distance (km) Brightness Sun altitude
Rises 23:06:12 0° 330° (NNW) 3,218 7.8 -8.3°
Reaches altitude 10° 23:08:37 10° 327° (NNW) 2,275 7.0 -8.2°
Maximum altitude 23:13:41 61° 248° (WSW) 830 4.0 -7.9°
Drops below altitude 10° 23:18:35 10° 169° (S) 2,201 5.9 -7.6°
Enters shadow 23:20:21 - 167° (SSE) 2,894 6.5 -7.5°
